TimeEDT,TemperatureF,Dew PointF,Humidity,Sea Level PressureIn,VisibilityMPH,Wind Direction,Wind SpeedMPH,Gust SpeedMPH,PrecipitationIn,Events,Conditions,WindDirDegrees,DateUTC
12:53 AM,66.0,60.1,81,29.92,10.0,West,3.5,-,N/A,,Overcast,260,2013-09-08 04:53:00
1:53 AM,66.0,60.1,81,29.92,10.0,West,4.6,-,N/A,,Overcast,280,2013-09-08 05:53:00
2:53 AM,64.9,59.0,81,29.91,8.0,Calm,Calm,-,0.00,Rain,Light Rain,0,2013-09-08 06:53:00
3:53 AM,64.0,61.0,90,29.90,6.0,Calm,Calm,-,0.00,,Overcast,0,2013-09-08 07:53:00
4:53 AM,64.0,61.0,90,29.90,6.0,Calm,Calm,-,N/A,,Overcast,0,2013-09-08 08:53:00
5:53 AM,63.0,60.1,90,29.89,7.0,Calm,Calm,-,N/A,,Partly Cloudy,0,2013-09-08 09:53:00
6:53 AM,62.1,59.0,90,29.89,5.0,Calm,Calm,-,N/A,,Clear,0,2013-09-08 10:53:00
7:53 AM,64.9,60.1,84,29.90,6.0,West,4.6,-,N/A,,Haze,260,2013-09-08 11:53:00
8:53 AM,69.1,59.0,70,29.89,10.0,West,9.2,-,N/A,,Clear,280,2013-09-08 12:53:00
9:53 AM,72.0,60.1,66,29.89,10.0,WNW,11.5,-,N/A,,Mostly Cloudy,290,2013-09-08 13:53:00
10:53 AM,77.0,62.1,60,29.90,10.0,WNW,10.4,-,N/A,,Scattered Clouds,300,2013-09-08 14:53:00
11:53 AM,81.0,63.0,54,29.89,10.0,NW,10.4,17.3,N/A,,Partly Cloudy,320,2013-09-08 15:53:00
12:53 PM,78.1,63.0,60,29.90,10.0,NW,9.2,-,N/A,,Mostly Cloudy,320,2013-09-08 16:53:00
1:53 PM,77.0,62.1,60,29.91,10.0,North,8.1,-,N/A,,Overcast,360,2013-09-08 17:53:00
2:53 PM,78.1,62.1,58,29.90,10.0,Variable,3.5,-,N/A,,Overcast,0,2013-09-08 18:53:00
3:53 PM,81.0,61.0,50,29.90,10.0,North,9.2,-,N/A,,Scattered Clouds,350,2013-09-08 19:53:00
4:53 PM,80.1,59.0,48,29.92,10.0,North,16.1,20.7,N/A,,Partly Cloudy,350,2013-09-08 20:53:00
5:53 PM,77.0,57.0,50,29.94,10.0,North,13.8,-,N/A,,Clear,10,2013-09-08 21:53:00
6:53 PM,73.0,55.9,55,29.96,10.0,North,11.5,-,N/A,,Clear,10,2013-09-08 22:53:00
7:53 PM,69.1,51.1,53,29.99,10.0,North,8.1,-,N/A,,Clear,10,2013-09-08 23:53:00
8:53 PM,66.0,48.0,52,30.02,10.0,North,9.2,-,N/A,,Clear,10,2013-09-09 00:53:00
9:53 PM,62.1,48.9,62,30.05,10.0,NNE,5.8,-,N/A,,Clear,20,2013-09-09 01:53:00
10:53 PM,57.0,48.9,74,30.08,10.0,NNE,4.6,-,N/A,,Clear,20,2013-09-09 02:53:00
11:53 PM,57.0,46.9,69,30.09,10.0,ENE,3.5,-,N/A,,Clear,70,2013-09-09 03:53:00